Location: Bush-Denton Oil Field
(37.4611°N, 96.4131°W)
Time: 03:42:30
(UTC+00:00)

Daily predictions for brighter satellites

Satellite Brightness Start Highest point End
(mag) Time Altitude Azimuth Time Altitude Azimuth Time Altitude Azimuth
NOAA 12 4.2 00:02:11 10° SSE 00:07:20 60° ENE 00:12:33 10° N
Cosmos 2058 Rocket 3.2 00:03:29 10° S 00:07:43 53° E 00:11:57 10° NNE
Meteor 1-16 Rocket 4.2 00:03:39 10° S 00:09:10 69° E 00:14:35 10° NNE
Lacrosse 5 rocket 1.4 00:07:14 10° NW 00:11:01 75° SW 00:15:00 10° SE
ATLAS 5 CENTAUR R/B 4.2 00:09:19 10° WNW 00:11:55 15° NW 00:14:40 10° N
OAO 2 Rocket 3.8 00:08:56 10° W 00:14:06 61° S 00:19:19 10° ESE
USA 116 4.4 00:12:31 10° NE 00:15:17 25° E 00:18:14 10° SSE
Cosmos 2278 Rocket 2.4 00:10:19 10° S 00:15:45 50° ESE 00:21:13 10° NNE
Cosmos 1503 Rocket 4.4 00:11:48 10° NNW 00:16:56 68° WSW 00:22:04 10° S
Cosmos 1328 4.1 00:16:56 10° N 00:20:44 43° E 00:24:30 10° SSE
Unknown 3.2 00:18:51 10° NNW 00:21:20 35° NE 00:23:36 12° ESE
Okean-O 2.8 00:17:19 10° S 00:21:45 82° WSW 00:26:12 10° NNW
Cosmos 292 Rocket 4.0 00:22:23 10° SSW 00:27:07 76° WNW 00:31:52 10° NNE
NOSS 3-2 (A) 3.8 00:22:38 10° S 00:27:45 38° ESE 00:33:22 10° NE
COSMO-SKYMED 1 2.5 00:23:34 10° NNE 00:27:56 73° ESE 00:32:15 10° S
EO 1 Delta rocket 4.3 00:26:37 10° SE 00:30:49 36° ENE 00:35:13 10° N
Cosmos 1271 Rocket 3.8 00:27:56 10° NNW 00:31:49 51° W 00:35:42 10° S
CSL-04 Rocket 3.9 00:27:52 10° SE 00:33:09 47° ENE 00:38:24 10° N
Cosmos 1356 3.7 00:29:50 10° SSW 00:33:15 69° W 00:36:41 10° N
YAOGAN 6 2.7 00:31:03 10° SSE 00:34:37 51° ENE 00:38:09 10° N
Abrixas rocket 3.6 00:32:23 10° W 00:35:07 29° NNW 00:37:49 10° NE
Cosmos 1461 4.3 00:32:05 10° N 00:35:10 20° NE 00:36:47 16° E
Cosmos 1953 Rocket 4.2 00:32:47 10° NNW 00:37:04 58° W 00:41:18 10° S
CZ-2D R/B 4.4 00:34:05 10° ESE 00:37:08 23° ENE 00:40:12 10° NNE
Cosmos 1300 3.8 00:38:50 10° SE 00:41:51 23° E 00:44:51 10° NE
ASTEX 1 3.6 00:40:03 10° N 00:45:01 77° W 00:49:59 10° SSW
OAO 3 Rocket 3.5 00:40:32 10° W 00:45:23 63° S 00:48:55 19° ESE
CZ-4 R/B 1.4 00:42:01 10° SSE 00:46:10 78° ENE 00:50:23 10° N
Cosmos 1339 Rocket 4.4 00:40:55 10° S 00:46:57 75° E 00:53:04 10° N
Envisat 3.4 00:46:51 10° S 00:51:53 67° WSW 00:56:57 10° NNW
NOSS 3-2 (C) 3.8 00:47:15 10° S 00:52:20 36° ESE 00:56:43 15° NE
Unknown 3.8 00:51:27 10° NNW 00:54:18 31° NE 00:54:45 30° NE
Cosmos 1833 Rocket 2.9 00:51:09 10° N 00:56:34 46° ENE 01:01:05 14° SE
SL-4 R/B 4.2 00:56:07 10° W 00:58:58 21° SW 01:01:41 10° S
Cosmos 1703 3.8 00:57:25 10° NNW 01:01:19 61° W 01:05:08 10° S
Shenzhou-11 Module 2.7 00:59:21 10° NW 01:01:55 33° NNE 01:02:03 33° NNE
Cosmos 1812 Rocket 3.5 00:59:05 10° S 01:03:25 62° E 01:07:50 10° NNE
Delta 2 Rocket 3.3 01:02:02 10° WSW 01:05:22 45° SSE 01:06:00 39° SE
Lacrosse 5 2.9 01:01:27 10° NNW 01:05:46 27° NE 01:06:48 25° ENE
Cosmos 1605 Rocket 3.9 00:59:47 10° N 01:05:59 90° W 01:12:05 10° S
Cosmos 1076 Rocket 4.0 01:02:33 10° N 01:06:36 36° ENE 01:07:11 35° E
ADEOS Rocket 4.2 01:01:53 10° NE 01:07:58 26° E 01:13:39 10° SE
Cosmos 1727 Rocket 3.9 01:05:33 10° S 01:11:42 80° E 01:17:54 10° N
YAOGAN 1 2.9 01:09:09 10° S 01:13:26 68° W 01:17:45 10° NNW
Cosmos 2082 Rocket 2.3 01:18:09 10° NNW 01:23:44 53° ENE 01:25:23 40° ESE
ATLAS 3B R/B 2.9 01:17:50 10° S 01:24:13 45° ESE 01:26:18 35° ENE
Meteor 2-1 Rocket 4.2 01:18:59 10° S 01:24:19 53° E 01:29:41 10° NNE
Cosmos 2173 Rocket 4.2 01:18:52 10° N 01:24:50 46° ENE 01:26:57 34° SE
Cosmos 1802 Rocket 4.4 01:22:15 10° N 01:28:17 41° ENE 01:28:48 40° E
STPSAT 2 (USA 217) 4.5 01:27:11 10° NNW 01:31:47 76° ENE 01:32:29 61° SE
Cosmos 2058 4.3 01:28:13 10° N 01:30:12 25° NNE 01:30:12 25° NNE
CENTAUR R/B 2.4 01:28:18 10° SSW 01:33:50 54° ESE 01:35:11 45° ENE
Ariane Rocket 2.9 01:30:22 16° SSE 01:34:28 83° ENE 01:39:36 10° NNW
CZ-3 Stage 3 2.8 01:33:18 10° WSW 01:36:00 21° SSW 01:36:00 21° SSW
Cosmos 967 Rocket 4.5 01:33:19 10° NNW 01:39:45 65° ENE 01:41:17 50° ESE
Cosmos 1000 Rocket 4.3 01:33:53 10° S 01:40:00 71° E 01:46:12 10° NNE
Cosmos 468 Rocket 4.1 01:36:39 10° S 01:41:06 55° SE 01:41:06 55° SE
SL-24 R/B 4.4 01:36:38 10° NNE 01:42:17 71° E 01:46:59 10° S
Gbstr 26 Del rocket 4.2 01:37:45 10° NW 01:44:12 64° NE 01:45:50 51° E
In-Cosmos 22 Rocket 4.2 01:43:54 10° N 01:48:28 57° NE 01:48:28 57° NE
Cosmos 2100 Rocket 3.8 01:43:18 10° N 01:49:30 80° E 01:52:30 32° SSE
Cosmos 1939 Rocket 4.0 01:51:44 25° SSW 01:53:33 41° W 01:57:23 10° NNW
Cosmos 2278 Rocket 4.4 01:55:44 10° WSW 02:00:05 22° NW 02:04:29 10° N
USA 234 4.5 02:03:15 26° S 02:03:15 26° S 02:06:20 10° SSW
Cosmos 2297 3.9 01:55:48 10° SSW 02:01:27 69° WNW 02:04:12 32° N
Cosmos 44 3.9 02:02:44 10° SW 02:07:35 53° WNW 02:07:35 53° WNW
Cosmos 2016 Rocket 4.3 02:02:56 10° N 02:07:47 54° NNE 02:07:47 54° NNE
MOS 1 4.5 02:15:04 66° WSW 02:15:22 67° WSW 02:21:01 10° NNW
H-2A R/B 4.0 02:27:46 21° N 02:27:46 21° N 02:29:32 10° N
Lacrosse 5 4.0 02:44:03 10° NW 02:46:02 23° WNW 02:46:02 23° WNW
ADEOS Rocket 3.9 02:46:23 10° N 02:53:47 56° WNW 03:00:36 10° SW
Cosmos 2082 Rocket 4.4 03:03:27 10° WNW 03:07:17 19° W 03:07:17 19° W
ATLAS 3B R/B 4.1 03:08:56 10° WSW 03:13:39 32° WNW 03:13:39 32° WNW
CENTAUR R/B 4.5 03:19:46 10° W 03:22:29 22° WNW 03:22:29 22° WNW
Cosmos 2333 Rocket 4.4 09:20:45 18° NNE 09:20:45 18° NNE 09:22:12 10° NNE
ATLAS 2AS CENTAUR R/B 3.4 09:21:43 59° ENE 09:21:43 59° ENE 09:28:28 10° NE
USA 238 DEB 4.3 09:29:51 57° E 09:29:51 57° E 09:36:25 10° SE
USA 238 4.3 09:29:53 57° ENE 09:29:53 57° ENE 09:36:30 10° SE
Cosmos 2219 Rocket 4.2 09:39:52 20° NNE 09:39:52 20° NNE 09:41:33 10° NNE
Cosmos 2237 Rocket 3.1 09:48:40 46° E 09:48:40 46° E 09:53:25 10° NNE
NOSS 3-2 (A) 4.2 09:50:44 47° NNW 09:53:19 73° ENE 10:01:48 10° SE
Milstar 3 4.4 09:56:45 21° S 09:57:47 21° SSE 10:02:44 10° ESE
USA 267 3.8 09:52:39 10° NE 09:57:49 45° N 09:57:49 45° N
Cosmos 1980 4.0 10:06:14 64° NE 10:06:14 64° NE 10:11:07 10° NNE
ADEOS 4.1 10:02:14 10° NNE 10:06:16 52° NE 10:06:16 52° NE
COSMOS 2428 4.3 10:10:42 23° N 10:10:42 23° N 10:12:59 10° N
Cosmos 2184 Rocket 4.5 10:06:05 10° S 10:12:08 59° E 10:18:16 10° NNE
NOSS 0 Rocket 3.9 10:12:46 73° N 10:12:46 73° N 10:18:25 10° NNE
Cosmos 614 Rocket 4.2 10:15:39 68° ENE 10:15:39 68° ENE 10:20:20 10° NNE
Cosmos 1140 Rocket 4.3 10:13:48 35° SSE 10:15:28 49° ESE 10:20:26 10° NNE
NOSS 3-2 (C) 4.3 10:12:13 19° NNW 10:18:09 72° NE 10:26:39 10° SE
MSX 4.0 10:18:38 10° NNE 10:24:22 70° ESE 10:29:27 13° S
PAYLOAD A 4.5 10:23:26 10° NNE 10:28:16 57° E 10:33:16 10° S
USA 234 3.7 10:23:50 10° ESE 10:30:11 57° NE 10:34:40 20° NNW
NOSS 3-4 (A) 3.3 10:30:58 64° WNW 10:31:13 64° NW 10:37:28 10° NNE
NOSS 3-4 (C) 3.3 10:31:00 64° WNW 10:31:18 65° NW 10:37:33 10° NNE
COSMOS 2441 4.4 10:29:06 10° NNE 10:34:01 77° E 10:36:31 29° S
SL-16 R/B 3.0 10:36:41 10° S 10:42:06 50° ESE 10:47:34 10° NNE
Cosmos 2074 Rocket 3.8 10:36:29 10° SSW 10:42:42 76° W 10:48:56 10° N
BREEZE-M DEB (TANK) 3.7 10:41:35 35° SW 10:44:32 75° SSE 10:48:01 10° ENE
Cosmos 44 3.0 10:43:44 57° N 10:44:33 77° ENE 10:48:51 10° SSE
Cosmos 292 Rocket 3.6 10:45:36 67° W 10:45:50 68° WSW 10:50:36 10° S
ATLAS 3B R/B 2.9 10:42:01 10° NNW 10:48:44 70° ENE 10:55:37 10° SE
Cosmos 1023 Rocket 4.3 10:47:10 39° SSW 10:49:05 76° WNW 10:54:15 10° NNE
Cosmos 1606 Rocket 4.2 10:49:40 10° N 10:53:55 56° E 10:58:10 10° SSE
SJ-6F 4.3 10:49:49 10° NNE 10:53:59 87° WNW 10:56:37 22° SSW
IDEFIX/ARIANE 42P 3.1 10:49:14 10° N 10:53:23 38° NW 10:53:23 38° NW
Cosmos 2278 Rocket 2.1 10:51:58 20° NNW 10:55:53 64° WSW 11:01:27 10° S
Cosmos 1437 Rocket 4.5 10:52:31 10° SSE 10:55:55 32° E 10:59:20 10° NNE
H-2A R/B 2.6 10:52:46 10° N 10:56:41 53° WNW 10:56:41 53° WNW
CENTAUR R/B 3.2 10:50:52 10° NNW 10:59:08 90° SSE 11:07:54 10° SSE
Cosmos 2333 Rocket 4.0 11:02:47 15° NW 11:02:47 15° NW 11:04:54 10° NNW
Cosmos 489 Rocket 4.4 10:55:45 10° NNW 11:01:55 64° WSW 11:08:06 10° S
CZ-2C R/B 2.4 10:56:51 10° N 11:02:04 81° WNW 11:07:09 10° SSW
Cosmos 676 Rocket 3.9 11:03:28 12° SSW 11:08:16 67° WNW 11:13:32 10° NNE
ATLAS 2AS CENTAUR R/B 3.8 11:09:12 26° WNW 11:12:03 32° NW 11:19:07 10° NNE
IUS-9 SRM-1 4.2 11:11:36 10° S 11:12:47 12° SSE 11:14:32 10° SE
Milstar 3 Cent rocket 3.6 11:10:17 14° SW 11:14:02 25° S 11:17:54 10° ESE
Okean 1-7 Rocket 3.5 11:10:31 10° S 11:14:57 89° ESE 11:19:27 10° N
Cosmos 407 Rocket 4.3 11:17:11 27° WNW 11:17:38 28° WNW 11:22:02 10° N
Cosmos 1953 2.3 11:14:00 10° NNW 11:17:57 57° W 11:21:51 10° S
CZ-4B R/B 2.7 11:16:06 10° N 11:19:59 60° WNW 11:23:40 10° SSW
COSMO-SKYMED 1 3.8 11:16:26 10° SE 11:20:32 43° ENE 11:24:40 10° N
Cosmos 2219 Rocket 4.2 11:21:37 11° NW 11:21:37 11° NW 11:22:25 10° NNW
SL-8 R/B 4.4 11:17:23 11° SSW 11:21:49 51° SE 11:26:27 10° ENE
Meteor 1-4 Rocket 3.1 11:24:23 32° W 11:24:31 33° WNW 11:27:41 10° NNW
Meteor 2-5 Rocket 4.3 11:19:42 10° S 11:25:23 65° E 11:31:13 10° NNE
Cosmos 1707 3.9 11:28:44 24° WNW 11:28:44 24° WNW 11:31:33 10° NNW
Meteor 2-10 4.2 11:23:20 10° N 11:28:37 78° E 11:34:02 10° SSE
Cosmos 2228 2.9 11:25:10 10° NNW 11:29:22 64° W 11:33:32 10° S
Cosmos 1726 2.4 11:26:41 10° N 11:30:21 70° E 11:34:01 10° SSE
Meteor 1-31 Rocket 3.1 11:27:40 10° N 11:31:13 39° WNW 11:34:45 10° SW
Cosmos 2237 Rocket 3.3 11:30:34 20° W 11:32:15 23° WNW 11:36:43 10° N
In-Cosmos 22 4.0 11:27:16 10° SSW 11:32:32 66° W 11:37:58 10° N
PSLV R/B 2.7 11:33:01 35° WNW 11:33:50 58° NNW 11:36:28 10° ENE
Cosmos 1726 Rocket 3.5 11:30:02 10° NNW 11:34:17 60° W 11:38:31 10° S
Cosmos 962 Rocket 4.5 11:33:47 10° SSW 11:40:01 71° W 11:46:22 10° N
CZ-4B DEB 4.2 11:38:43 10° NNE 11:44:13 88° ESE 11:49:40 10° SSW
Cosmos 2218 Rocket 4.5 11:38:36 10° S 11:44:55 68° E 11:51:13 10° NNE
Cosmos 1674 2.5 11:41:50 10° SSW 11:45:31 73° W 11:49:14 10° N
Cosmos 1850 Rocket 3.9 11:41:31 10° SSW 11:46:42 81° WNW 11:51:54 10° NNE
Cosmos 1484 Rocket 2.7 11:43:37 10° N 11:47:23 62° WNW 11:51:12 10° SSW
RESURS DK-1 3.3 11:44:40 13° WSW 11:47:40 27° WNW 11:51:13 10° N
Helios 1A Rocket 3.1 11:44:08 10° NNE 11:48:18 77° ESE 11:52:26 10° S
Cosmos 2154 Rocket 4.4 11:42:40 10° SW 11:48:20 37° WNW 11:54:03 10° N
Meteor 2-17 Rocket 4.4 11:43:36 10° SSW 11:49:40 75° W 11:55:44 10° N
Cosmos 2369 Rocket 4.1 11:45:40 10° N 11:50:33 30° ENE 11:55:23 10° ESE
Okean O Rocket 1.8 11:49:31 10° NNE 11:53:56 76° ESE 11:58:16 10° S
Cosmos 1356 4.1 11:52:33 10° NNW 11:55:40 32° W 11:58:46 10° SSW
